Current Version              Previous Version:    01  02  03  04  05  06  07  08  09  10  11  12  13  14  15  16  17  18  19  20  21  22  23  24  25  26  27  28  29  30  
   31  32  33  34  35  36  37  38  39  40  41  42  43  44  45  46  47  48  49  50  51  52  53  54  55  56  57  58  59  60  

[Printable]
954
ASUS44 KLUB 270710
RWRTX
WEST TEXAS WEATHER ROUNDUP
NATIONAL WEATHER SERVICE LUBBOCK TX
100 AM CST THU NOV 27 2014

NOTE: "FAIR" INDICATES FEW OR NO CLOUDS BELOW 12,000 FEET WITH NO
SIGNIFICANT WEATHER AND/OR OBSTRUCTIONS TO VISIBILITY.

TXZ004-006>008-010-012-014-016-OKZ002-270800-
TEXAS PANHANDLE/OKLAHOMA PANHANDLE

CITY           SKY/WX    TMP DP  RH WIND       PRES   REMARKS
AMARILLO       CLEAR     31  21  66 SE7       30.41R WCI  24
BORGER         CLEAR     34  20  56 CALM      30.43R
CANADIAN       CLEAR     26  19  77 CALM      30.45R
DALHART        CLEAR     29  19  66 S5        30.41R WCI  24
DUMAS            N/A     28  18  66 SE6       30.40S WCI  22
GUYMON         CLEAR     27  17  66 S5        30.41R WCI  22
HEREFORD       CLEAR     28  23  81 CALM      30.40S
PAMPA          CLEAR     28  18  66 SE8       30.42R WCI  20
PERRYTON       CLEAR     26  16  66 S5        30.43R WCI  20
$$

TXZ026-029-035-045-048-270800-
SOUTHERN PANHANDLE/SOUTH PLAINS/ROLLING PLAINS

CITY           SKY/WX    TMP DP  RH WIND       PRES   REMARKS
CHILDRESS      CLEAR     39  22  50 E5        30.45R
SEMINOLE       PTCLDY    36  30  78 CALM      30.41S
LUBBOCK        PTCLDY    33  23  66 E6        30.40S WCI  28
PLAINVIEW      PTCLDY    35  25  68 E5        30.39S WCI  31
SNYDER         CLEAR     40  33  75 NE3       30.42R
$$

TXZ052-054-060>062-072-078-127-140-154-169-270800-
PERMIAN BASIN/CONCHO VALLEY/BIG COUNTRY/EDWARDS PLATEAU

CITY           SKY/WX    TMP DP  RH WIND       PRES   REMARKS
ABILENE        CLEAR     43  33  68 E3        30.41S
BIG SPRING     CLEAR     46  32  58 E9        30.41S
BRADY          CLEAR     45  34  65 NE8       30.38R
BROWNWOOD      CLEAR     39  36  87 N3        30.40S
JUNCTION       CLEAR     37  30  75 W5        30.38R WCI  33
MIDLAND        CLEAR     42  31  64 E6        30.39R
ODESSA         CLEAR     43  30  60 E8        30.39R
SAN ANGELO     CLEAR     41  33  73 CALM      30.40R
SONORA         CLEAR     41  32  70 N3        30.42R
SWEETWATER     CLEAR     45  33  62 E3        30.44R
WINK           CLEAR     37  24  59 N5        30.36R WCI  33
$$

TXZ055-058-074-075-080-082-270800-
FAR WEST/SOUTHWEST MOUNTAINS/TRANS PECOS

CITY           SKY/WX    TMP DP  RH WIND       PRES   REMARKS
ALPINE         CLEAR     38  23  54 SW7       30.43S WCI  32
DRYDEN           N/A     50  29  44 N12       30.34S
EL PASO        PTCLDY    40  19  43 E3        30.34R
FORT STOCKTON  CLEAR     44  25  47 SE8       30.36R
MARFA          CLEAR     30  18  59 N6        30.39S WCI  24
PECOS          CLEAR     41  26  55 NE6       30.36S
PRESIDIO       FAIR      49  24  37 N8        30.32F
$$

TXZ014-016-019-021>030-083-270800
TEXAS TECH WEST TEXAS MESONET/TEXAS PANHANDLE/NORTHERN SOUTH PLAINS

CITY           SKY/WX    TMP DP  RH WIND       PRES   REMARKS
ABERNATHY 5ENE   N/A     31  24  75 SE5       30.41S WCI  26
AMARILLO 9NNE    N/A     27  22  80 S2        30.41S
AMARILLO 7SSE    N/A     28  20  72 E2        30.42R
AMHERST 1NE      N/A     32  23  71 SE6       30.40F WCI  26
BOOTLEG 11WNW    N/A     30  21  69 S12       30.40S WCI  20
CANADIAN 6E      N/A     25  15  67 NE5       30.43S WCI  19
CAPROCK CYN SP   N/A     30  24  75 CALM      30.44S
CHILDRESS 2NNE   N/A     37  22  56 NE7       30.44S WCI  31
CLARENDON 2WSW   N/A     25  20  80 N1        30.43R
CLAUDE 12SW      N/A     31  19  62 E6        30.41R WCI  25
DIMMITT 2NE      N/A     30  21  68 SE6       30.40R WCI  24
FLOYDADA 2NNE    N/A     29  22  74 E6        30.41S WCI  23
FRIONA 2NE       N/A     30  22  73 S7        30.40S WCI  23
GOODLETT 3W      N/A     33  24  69 NE6       30.45R WCI  27
HART 3N          N/A     27  22  81 E6        30.40R WCI  20
HEREFORD 2NW     N/A     31  21  68 S5        30.39S WCI  26
MCLEAN 1E        N/A     32  18  55 NE8       30.42R WCI  25
MEMPHIS 1NE      N/A     30  22  70 N3        30.45R
MULESHOE 2SSW    N/A     23  20  87 SE3       30.40S
OLTON 6S         N/A     30  22  72 SE8       30.40S WCI  23
PALO DURO SP     N/A     35  21  58 E1        30.42S
PAMPA 2E         N/A     25  18  73 SE5       30.41S WCI  19
PLAINVIEW 1S     N/A     33  24  70 E3        30.40S
SILVERTON 7ESE   N/A     31  21  66 E7        30.42S WCI  24
TULIA 2ENE       N/A     29  24  81 SE6       30.41S WCI  23
TURKEY 2WSW      N/A     39  23  51 CALM      30.43S
UMBARGER 3NNE    N/A     31  22  68 SE6       30.41R WCI  26
$$

TXZ033>036-039>041-045>048-270800
TEXAS TECH WEST TEXAS MESONET/SOUTH PLAINS

CITY           SKY/WX    TMP DP  RH WIND       PRES   REMARKS
AIKEN 3WSW       N/A     28  20  71 E8        30.42R WCI  20
ANDREWS 2NE      N/A     38  30  72 E3        30.40R
ANTON 6SSW       N/A     33  25  73 E5        30.40F WCI  28
BROWNFIELD 2S    N/A     35  28  74 E5        30.41S WCI  31
DENVR CTY 7WNW   N/A     35  28  75 E6        30.40S WCI  30
GAIL 2ESE        N/A     35  31  83 NW2       30.41S
LAMESA 2SE       N/A     37  31  78 E2        30.42R
LEVELLAND 4S     N/A     32  24  70 E3        30.40S
LUBBOCK 3WNW     N/A     37  24  58 E5        30.41F WCI  34
MORTON 1ENE      N/A     31  25  76 SE3       30.40S
ODONNELL 1N      N/A     35  31  83 NE5       30.41R WCI  31
PLAINS 3N        N/A     35  27  72 E6        30.41R WCI  30
RALLS 1SE        N/A     34  23  63 E6        30.42F WCI  29
REESE CENTER     N/A     34  24  67 E6        30.40F WCI  29
SEAGRAVES 1SW    N/A     37  29  74 E3        30.41S
SEMINOLE 2NNE    N/A     36  30  77 NE7       30.41R WCI  31
SLATON 2NE       N/A     38  25  59 E3        30.41F
SNYDER 3E        N/A     42  34  72 E7        30.41S
SUNDOWN 8SW      N/A     33  25  73 E7        30.40F WCI  27
TAHOKA 3NNE      N/A     34  26  71 E5        30.40F WCI  30
WOLFFORTH 6SSW   N/A     33  25  73 E6        30.41S WCI  27
$$

TXZ031-032-036>038-042>044-270800-
TEXAS TECH WEST TEXAS MESONET/ROLLING PLAINS

CITY           SKY/WX    TMP DP  RH WIND       PRES   REMARKS
ASPERMONT 3NE    N/A     32  30  92 CALM      30.43S
FLUVANNA 3WNW    N/A     39  32  76 E7        30.41R WCI  34
GRAHAM 5SSW      N/A     42  30  61 E3        30.41S
GUTHRIE 10WSW    N/A     36  25  64 N1        30.42S
HASKELL 1NW      N/A     39  33  79 NE6       30.42S WCI  34
JAYTON 1SSE      N/A     40  29  65 N6        30.43R
KNOX CITY 3NW    N/A     32  30  90 CALM      30.44R
LK A HENRY 1NW   N/A     38  30  72 N3        30.42R
NORTHFIELD 1S    N/A     32  24  73 SW3       30.44S
ODELL 4ENE       N/A     35  26  67 NE3       30.46R
PADUCAH 10SW     N/A     38  24  59 N5        30.44R WCI  34
POST 1NE         N/A     35  27  73 NW5       30.42R WCI  31
RRING SPRGS 3N   N/A     39  24  54 NE5       30.43R
SEYMOUR 3NW      N/A     37  30  74 NE7       30.44S WCI  32
SPUR 1W          N/A     32  25  74 N3        30.42S
WEINERT 2NNE     N/A     36  30  77 NE5       30.43S WCI  32
WHITE RVR 6NE    N/A     39  23  53 NE5       30.42S
$$

TXZ052-054-060>062-072-078-127-140-154-169-270800-
TEXAS TECH WEST TEXAS MESONET/PERMIAN BASIN/
CONCHO VALLEY/BIG COUNTRY/EDWARDS PLATEAU

CITY           SKY/WX    TMP DP  RH WIND       PRES   REMARKS
COYANOSA 2N      N/A     37  26  63 E5        30.37R WCI  34
JUNCTION 1SSW    N/A     31  26  84 S1        30.40R
MERTZON 3NNE     N/A     32  28  86 N1        30.41S
SAN ANGELO 7NW   N/A     38  32  77 SW1       30.41R
STRLNG CT 4WSW   N/A     32  28  87 NW1       30.41S
ST LAWRNCE 5SW   N/A     39  31  71 E7        30.39R WCI  34
SWEETWATR 11SW   N/A     40  32  72 NE9       30.41S WCI  35
WALL 1E          N/A     37  30  77 CALM      30.40S
$$

TXZ055-058-074-075-080-082-270800-
TEXAS TECH WEST TEXAS MESONET/FAR WEST/SOUTHWEST MOUNTAINS/TRANS PECOS

CITY           SKY/WX    TMP DP  RH WIND       PRES   REMARKS
PRSMN GAP BBNP   N/A     56  20  25 N17       30.34R
GUADLPE MTN NP   N/A     39  20  46 N3        30.40S
$$



213
ASUS44 KEWX 270710
RWRTX
SOUTH TEXAS REGIONAL WEATHER ROUNDUP
NATIONAL WEATHER SERVICE AUSTIN/SAN ANTONIO TX
100 AM CST THU NOV 27 2014

NOTE: "FAIR" INDICATED FEW OR NO CLOUDS BELOW 12,000 FEET WITH NO
SIGNIFICANT WEATHER AND/OR OBSTRUCTIONS TO VISIBILITY.

* - THESE STATIONS ARE NOT NWS OR FAA STATIONS...AND ARE NOT SUBJECT
    TO NWS AND FAA QUALITY CONTROL.

TXZ171-172-183>190-270800-
TEXAS HILL COUNTRY AND EDWARDS PLATEAU

CITY           SKY/WX    TMP DP  RH WIND       PRES   REMARKS
JUNCTION       CLEAR     37  30  75 W5        30.38R WCI  33
*LLANO         CLEAR     39  36  87 CALM      30.42S
BURNET         CLEAR     48  35  60 NE9       30.39R WCI  44
*HORSESHOE BAY CLEAR     39  34  82 CALM      30.39R
*KERRVILLE     CLEAR     36  32  85 N3        30.37S
*FREDERICKSBRG CLEAR     38  33  82 CALM      30.37R
*ROCKSPRINGS   CLEAR     46  30  53 MISG      30.38R
*BOERNE STAGE  CLEAR     37  32  81 NW3       30.37S
*CASTROVILLE   CLEAR     53  32  44 CALM      30.36R
HONDO          CLEAR     42  31  64 N9        30.36R WCI  37
*UVALDE        CLEAR     50  31  48 NE5       30.34R WCI  49
DEL RIO        CLEAR     45  36  70 CALM      30.32R
LAUGHLIN AFB   CLEAR     46  34  64 NE8       30.32R WCI  41
CARRIZO SPRGS  CLEAR     41  36  81 CALM      30.30R
$$

TXZ173-191>194-202-209-217>225-228-270800-
CENTRAL AND SOUTH CENTRAL TEXAS

CITY           SKY/WX    TMP DP  RH WIND       PRES   REMARKS
GEORGETOWN     CLEAR     46  34  61 N7        30.38R WCI  43
AUSTIN/BERGSTM CLEAR     41  37  86 CALM      30.38R
AUSTIN/MABRY   CLEAR     52  36  54 N5        30.38R
*AUSTIN/EXEC   CLEAR     46  37  71 N8        30.38R WCI  42
*LAGO VISTA    CLEAR     51  35  54 NE10      30.38R
SAN MARCOS     CLEAR     48  34  57 N9        30.38R WCI  44
NEW BRAUNFELS  CLEAR     53  34  48 NE13      30.34R
RANDOLPH AFB   CLEAR     48  36  62 N8        30.35R WCI  45
PT SAN ANTONIO CLEAR     43  38  81 N5        30.33R WCI  41
SAN ANTONIO    CLEAR     54  34  46 N3        30.35R
STINSON FIELD  CLEAR     55  34  45 N3        30.33R
*PLEASANTON    CLEAR     49  38  64 N7        30.34R WCI  47
*LA GRANGE     CLEAR     47  42  84 N3        30.34S
*GIDDINGS      CLEAR     50  35  55 N3        30.40R
*GONZALES      CLEAR     47  40  77 N5        30.34S WCI  45
$$

TXZ163>164-176>182-195>201-210>213-226-227-235-270800-
SOUTHEAST TEXAS

CITY           SKY/WX    TMP DP  RH WIND       PRES   REMARKS
COLLEGE STN    CLEAR     52  36  54 N8        30.35S
*BRYAN         CLEAR     50  36  57 N6        30.37S WCI  48
*CALDWELL      CLEAR     48  32  53 CALM      30.40R
*CROCKETT      CLEAR     52  39  62 N6        30.40R
*BRENHAM       CLEAR     48  39  70 CALM      30.37R
HUNTSVILLE     CLEAR     47  36  65 NE3       30.35R
CONROE         CLEAR     41  39  93 CALM      30.36R
HOUSTON BUSH   CLEAR     48  43  82 CALM      30.35R
HOUSTON HOBBY  CLEAR     49  44  83 CALM      30.34R
*HOUSTON SW AP CLEAR     45  44  97 CALM      30.36R
PEARLAND       CLEAR     51  45  79 NW3       30.35R
HOUSTON HOOKS  CLEAR     44  41  89 VRB3      30.36R
ELLINGTON FLD  CLEAR     54  41  62 CALM      30.35R
SUGAR LAND     CLEAR     45  42  89 CALM      30.34R
*HOUSTON EXEC  CLEAR     46  41  81 N3        30.36R
*CLEVELAND MUN CLEAR     40  40 100 CALM      30.36R
*WHARTON       CLEAR     47  45  93 N5        30.35S WCI  44
*COLUMBUS      FAIR      46  41  84 N5        30.35R WCI  44
$$

TXZ214>216-236>238-270800-
THE UPPER TEXAS COAST

CITY           SKY/WX    TMP DP  RH WIND       PRES   REMARKS
*ORANGE        CLEAR     46  46 100 CALM      30.36R
PORT ARTHUR    CLEAR     49  43  80 CALM      30.34R
GALVESTON      CLEAR     56  53  90 W5        30.34R
ANGLETON       CLEAR     44  44 100 CALM      30.33R
*BAY CITY        N/A     48  48 100 CALM      30.33S
PALACIOS       FOG       48  46  93 N6        30.33R VSB 1/2 WCI  45
$$

TXZ229>234-239>247-270800-
TEXAS COASTAL BEND AND RIO GRANDE PLAINS

CITY           SKY/WX    TMP DP  RH WIND       PRES   REMARKS
VICTORIA       CLEAR     46  42  86 NW3       30.33R
*BEEVILLE      CLEAR     53  43  68 CALM      30.32R
ROCKPORT         N/A     57  54  89 SW6       30.32R
*PORT ARANSAS  CLEAR     60  56  87 SW5       30.32R
*PORT LAVACA   CLEAR     49  48  96 NW3       30.33R
*INGLESIDE     CLEAR     56  53  89 S7        30.32R
CORPUS CHRISTI CLEAR     51  49  92 S3        30.32R
CORPUS NAS     CLEAR     58  55  90 S8        30.32R
*ROBSTOWN      NOT AVBL
ALICE          CLEAR     50  43  77 SW6       30.31R WCI  48
KINGSVILLE NAS CLEAR     50  46  86 S6        30.32S WCI  48
COTULLA        CLEAR     49  34  56 NE9       30.32R WCI  45
*FAITH RANCH   CLEAR     41  32  70 W3        30.31S
LAREDO         CLEAR     53  37  54 E6        30.32S
$$

TXZ248>255-270800-
DEEP SOUTH TEXAS

CITY           SKY/WX    TMP DP  RH WIND       PRES   REMARKS
BROWNSVILLE    FOG       54  53  97 CALM      30.31F VSB 3/4
PORT ISABEL    CLEAR     55  53  93 S6        30.31S
*SOUTH PADRE   CLEAR    N/A N/A N/A CALM      30.31S
HARLINGEN      CLEAR     52  50  93 S5        30.31S FOG
*HEBBRONVILLE  CLEAR     49  37  63 SW6       30.31F WCI  47
MCALLEN        CLEAR     50  48  93 SE6       30.31F WCI  48
*WESLACO       CLEAR     53  50  89 S5        30.31S
FALFURRIAS     CLEAR     48  43  82 CALM      30.31S
EDINBURG       CLEAR     52  49  89 CALM      30.31S
*ZAPATA        CLEAR     43  41  92 E3        30.29S
$$

TXZ213>215-236>238-242>244-246-247-251-254-255-270800-
CMAN STATIONS

STATION/POSITION TIME  TEMP    WIND        PRES    WAVE
                       AIR SEA DIR/SP/G            HT/PER
                 (UTC) (F)     (DEG/KT/KT) (MB)    (FT/S)
SABINE PASS      0700   52 59  310/  5/  8 1027.1
SEA RIM ST PARK  0700   50     320/  6/  7 1028.1
NORTH JETTY/GLS  0700   60 60  290/  8/ 11   N/A
EAGLE POINT      0700   54 59  290/  3/  5 1027.2
MORGANS POINT    0700   56     280/  4/  6 1027.4
MISSION/ARANSAS  0600   62     200/ 10     1027.0
PORT O`CONNOR    0700          230/  4/  4   N/A
PORT ARANSAS     0700   63 62  200/ 10/ 10 1027.2
MALAQUITE BEACH  0700   59 63  200/  8/  9 1026.0
BAFFIN BAY       0700   61 72  200/  9/ 12 1026.5
PORT ISABEL      0700   60 63  180/  2/  4 1026.4
$$

GMZ080-GMZ150>470-270800-
OFFSHORE BUOY REPORTS

STATION/POSITION TIME  TEMP    WIND        PRES    WAVE
                       AIR SEA DIR/SP/G            HT/PER
                 (UTC) (F)     (DEG/KT/KT) (MB)    (FT/S)
20 E GALVESTON   0700   62 61  270/  8/ 10 1026.6    2/ 6
90 E PT ARANSAS  0700   70 72  240/  8/ 10 1027.0    3/ 6
35 NE PT MANSFLD 0700   70 73  210/ 10/ 12 1026.2    3/ 8
200 E PT ISABEL  0700   68 74  340/  4/  8 1027.1    2/ 8
$$